Results for 2017 Whiskey Off Road
If you have a question regarding you results, please email Results
Distance Category
Search for Name or Plate #
PlacePlate #NameDurationCityStateCategorySponsorAgeEvent Pics
12397Jacob Hill 01:33:19Chino ValleyAZFun Ride 16View
22347Jacob Harrelson01:34:23Phoenix AZFun Ride 14View
32387Liam Clark01:37:26TempeAZFun RideDynamix Devo11View
42296Steven Naughton01:38:13PeoriaAZFun RidePosterhanger.com44View
51840Zaydie Croy01:39:04PrescottAZFun RideArizona Devo14View
62410Kyle Short01:39:40PrescottAZFun Ride 31View
72204Jay Guyot01:39:46TucsonAzFun RideCirrus Visual60View
82207Eric Breaux01:39:59NeedlesCAFun Ride 43View
92433Russell Anderson01:41:07Cave Creek AZFun Ride 41View
102206Michael Breaux01:41:14NeedlesCAFun Ride 43View
112399Brandon Blair01:44:11TucsonAZFun RideCirrus Visual43View
122233Zane Simmons01:44:12PrescottAZFun Ride 15View
132388David De La Fuente01:44:37Phoenix AZFun Rideprevent child abuse arizona38View
142244Peter Hall01:48:00PrescottAZFun Ride 36View
152335Geoff Bracken01:48:41KingmanAZFun Ride 54View
162409Dean Greggain01:49:02ChandlerAZFun Ride 41View
172398Caleb Hill 01:49:12Chino ValleyAZFun Ride 15View
182223Greg Raskin01:50:18PrescottAZFun Ride 50View
192440Damiano Rivera De Rosales01:50:20  Junior Male 7View
202439Ignacio Rivera De Rosales 01:50:21  Men's Open 37View
212371Jason Wilson01:50:30MesaAZFun Ride 44View
222310Joe Smith01:50:45NewnanGAFun Ride 34View
232247Derek Craig01:50:47PrescottAZFun Ride 32View
242391Luke Harris01:50:53PhoenixAZFun RideSingle Track12View
252243Tom Hughes01:51:50PrescottAZFun Ride 50View
262340Ryan Brindle01:51:50Lake Havasu CityAZFun Ride 33View
272402Patrick Fraher01:54:09Prescott ValleyAZFun Ride 47View
282389Christopher Sachar01:54:10San Diego CAFun Ride 28View
292441Daniel Walker01:54:13  Junior Male 11View
302258Robert Gutierrez01:55:51Redondo BeachCAFun Ride 31View
312404Larry Middleman01:56:47TempeAZFun Ride 59View
322308Gilbert Castillo01:57:46PhoenixAZFun RideWife39View
332375Ernesto Alvarez01:57:46PrescottAZFun RideGalpin Ford50View
342200Cole Foudy01:57:55ChandlerAZFun Ride192c15View
352201Ken Foudy01:57:55ChandlerAZFun Ride192c44View
362288Jerry Barker01:58:13PrescottAZFun Ride 56View
372414Matt Blair01:59:25TucsonAZFun RideCirrus Visual41View
382202George Thul01:59:46TucsonAZFun Ride 57View
392341Jenna Howard01:59:46PrescottAZFun RidePrescott Mile HIgh Middle School46View
402342Joe Howard01:59:47PrescottAZFun RidePrescott Unified School District46View
412239Tyler Wallace02:00:09PrescottAZFun RideGalpin Ford35View
422384Bill Koning02:00:39Litchfield ParkAZFun Ride 43View
432408Josh Perks 02:00:56Gilbert AZFun Ride 40View
442434Michael Miller02:01:01TucsonAZFun RideCirrus Visual43View
452268Debbie Meyer02:02:34Gold CanyonAZFun Ride 58View
462277Tim Trzaska02:02:42FlagstaffAZFun RideSuzie Trzaska51View
472261Rob Kerben02:02:48PrescottAZFun Ride 45View
482426Chris Hummel02:02:48Prescott ValleyAZFun Ride 48View
492406Trevor Phillips02:03:00PrescottAZFun RidePark Plaza Liquor and Deli34View
502356Mike Celic02:03:10CamarilloCAFun Ride 32View
512256Erik Hansen02:03:54SeligmanAZFun RideThaifoon56View
522352Kent Keegan02:04:47PrescottAZFun Ride 54View
532309Scott Stedman02:04:51TempeAZFun Ride 14View
542346Michael Harrelson02:05:00Phoenix AZFun Ride 42View
552422Paul Hicks02:05:13PrescottAZFun Ride 55View
562205Patrick Murphy02:05:28TucsonAZFun RideCirrus Visual47View
572246Andy Fraher02:06:10PrescottAZFun Ride 52View
582270Jimmy Williams02:06:40AnaheimCAFun Ride 54View
592373Rosa Melchiorre02:06:43PrescottAZFun Ride 21View
602219Joel Friedrick02:06:45San DiegoCAFun Ride 55View
612240Ryan Goodell02:06:48PrescottAZFun RideGalpin Ford42View
622369Anders Vidarsson02:06:52PhoenixAZFun Ride 16View
632263Joseph Ruwald02:08:26Prescott ValleyAZFun Ride 16View
642264Paul Ruwald02:08:26Prescott ValleyAZFun Ride 44View
652231Chris Rike02:08:58PrescottAZFun Ride 42View
662370Finnur Vidarsson02:09:07PhoenixAZFun Ride 14View
672222Larry Green02:10:15TucsonAZFun Ride 56View
682437Francisco Lisbona02:10:15Prescott AZFun Ride 47View
692438Blue Taylor02:10:15PrescottAZFun Ride 9View
702220Scott Wahl02:10:19San DiegoCAFun Ride 57View
712367Rachel Osborn02:11:25PrescottAZFun Ride 42View
722320James Bird02:11:38TucsonAZFun Ride 54View
732386Norman Bizon02:12:26ScottsdaleAZFun Ride 50View
742351Todd Breen02:13:29OracleAZFun Ride 57View
752403Tim Mackrain02:14:24PhoenixAZFun Rideomegaaddict.com Hbmtb.com 51View
762374Christy Foote02:14:29PrescottAZFun Ride 40View
772312Austin Hughes02:15:05SurpriseAZFun RideThe Mom and The Dad14View
781469Skyler Lavender02:15:17LakesideAZFun RideThrive Youth Cycling11View
792400Ira Brown02:15:17PrescottAZFun Ride 58View
802302Tyrel Greenwade02:15:18GilbertAZFun Ride 34View
812427Dawn Hindes02:15:50TucsonAZFun Ride 42View
821294Gunar Schinzel02:17:08TempeAZFun Ride046View
832266David Stone02:17:31WickenburgAZFun RideDont have one59View
842359Christopher Procyk02:17:41PhoenixAZFun Ride 43View
852292Ronnie Ducut02:17:57TollesonAZFun Ride 41View
862229William Skaggs02:17:58Prescott ValleyAZFun Ride 47View
872316Lane Johnson02:18:17MesaAZFun Ride 46View
882235Megan Holdsworth02:18:20PrescottAZFun Ride 39View
892236Mclaren Holdsworth02:18:21PrescottAZFun Ride 10View
902432Dan Ward02:19:27AnaheimCAFun Ride 30View
912381Emma Clark02:19:53TempeAZFun RideDynamix Devo9View
922380Jennifer Clark02:19:54TempeAZFun RideDynamix Devo41View
932300Luis Ramos02:20:20GilbertAZFun Ride 41View
942334Geoffrey Bracken02:20:32KingmanAZFun Ride 22View
952265James Roche02:20:41ChandlerAZFun Ride 24View
962284Gary Hart02:20:49ScottsdaleAZFun Ride 47View
972251Matthew Crothers02:21:50PrescottAZFun Ride 11View
982424Brendan Kambeitz02:23:24GilbertAZFun Ride 31View
992338Dean Mcgovern 02:25:00Phoenix AZFun Ride 45View
1002216Jenny Hawke02:25:01RivertonUTFun Ride 37View
1012248Dan Sarti02:26:10PrescottAZFun Ride 35View
1022259Landon Stribe02:26:10PrescottAZFun Ride 35View
1032364Rich Hoffecker02:27:50PhoenixAZFun Ride 43View
1042211Selina Bliss02:27:51PrescottAZFun Ride055View
1052283Christy Hart02:28:02ScottsdaleAZFun Ride 49View
1062317Kevin Cruz02:28:12SurpriseAZFun Ride 35View
1072289Jeff Waknitz02:28:13SurpriseAZFun Ride 42View
1082353Beau Wilson02:28:21FlagstaffAZFun Ride 36View
1092297Damian Sworan02:28:38PhoenixAZFun Ride 22View
1102280Bella Morocco02:29:18ChandlerAZFun RideDynamix Devo 11View
1112315Fionel Manuel02:29:24El MirageAZFun Ride 38View
1122301Ryan Rebennack02:29:25PhoenixAZFun Ride 39View
1132217Jenica Scaife02:29:27PrescottAZFun Ride 35View
1142394Jason Faflik02:29:29MaranaAZFun Ride 30View
1151030James Nebrig02:31:40PrescottAZFun RideHigh Gear 15View
1162214Lorrie Nebrig02:31:40PrescottAZFun Ride 57View
1172339Tonya Yates02:31:54Chino ValleyAZFun Ride 19View
1182429Kaela Martin02:32:56PrescottAZFun Ride 29View
1192430Matt Martin02:32:56PrescottAZFun Ride 29View
1202350Stephen Doyle02:33:05PrescottAZFun Ride 66View
1212298Amy Sworan02:33:07PhoenixAZFun Ride 56View
1222360Robyn Vail02:34:02PhoenixAZFun Ride 33View
1232281Ayu Hull02:36:37ChandlerAZFun RideFamily44View
1241219Gordon Shockley02:36:41TempeAZFun Ride8528449View
1252234Michele Bibeau02:36:55PrescottAZFun Ride 56View
1262411Zack Geiser02:37:06ChandlerAZFun Ride 44View
1272420George Erskine02:37:06MontaraCAFun RideMe43View
1282271Rob Cras02:39:28TempeAZFun Ride 30View
1292349Sally Underwood02:39:31PrescottAZFun Ride 62View
1302425Zhenevyeva Ehrbright02:39:49MaricopaAZFun Ride 40View
1312313Justin Caplan02:40:10Surprise AZFun RideMy Love41View
1322241Greg Galpin02:40:15PrescottAZFun RideGalpin Ford56View
1332242Loel Sanchez02:40:34PrescottAZFun RideGalpin Ford55View
1342405Dewee Debusk02:40:36Sierra VistaAZFun Ride 46View
1352227Rob Smith02:41:17PrescottAZFun RideOutdoor Sports59View
1362249Tom Tillery02:41:20PrescottAZFun RideDry Gulch Steakhouse53View
1372291Pete Cuison02:41:25PhoenixAZFun Ride 43View
1382392Angelina Castagno02:42:04FlagstaffAZFun Ride 40View
1392436Gordon Conklin02:42:31ScottsdaleAZFun Ride 50View
1402299Jim Chabot02:42:40Phoenix AZFun Ride 43View
1412435Kevin Kaplan02:43:15Oro ValleyAZFun RideCirrus Visual48View
1422407Max Kamen02:44:15PrescottAZFun Ride 37View
1432255Joe Haubrich02:44:28PrescottAZFun Ride 66View
1442218Jeremiah Chartier02:45:05Prescott ValleyAZFun Ride 40View
1452337Chase Milham 02:48:26El MirageAZFun RideDad9View
1462368Nancy Kastner02:48:28TucsonAZFun Ride 60View
1472372Carlos Gonzalez02:49:44PhoenixAZFun RideRummel Construction41View
1482345Ximena Florez02:50:51PrescottAZFun Ride 57View
1492286Dan Spacek02:51:18PeoriaAZFun RideSlippery Pig Bike Shop55View
1502272Madeleine Cook02:51:29Big Bear CityCAFun RideMy parents13View
1512238Noel Sato02:51:41PrescottAZFun Ride 47View
1522278Sheri Dipietro02:51:58Long BeachCAFun RidePiper43View
1532225Rachel Campbell02:52:23Prescott ValleyAZFun RideHi Country RV50View
1542319Mike Luebbers02:53:49MesaAZFun Ride 43View
1552431Ali Duceatt02:54:39GoodyearAZFun RideBikey McBikeface39View
1562306Vanessa Debroeck02:54:45LaytonUTFun Ride 42View
1572290Kenneth Skinner02:55:53PrescottAZFun Ride 44View
1582390Teresa Trevino02:57:33TucsonAZFun RideTeresas wallet49View
1592209Richard Pico02:57:44PeoriaAZFun Ride 40View
1602344Anthony Whitt02:58:39SurpriseAZFun Ride 44View
1612304Jake Rackham 02:58:41Surprise AZFun Ride 52View
1622287Jason Meador02:58:56PhoenixAZFun RideSlippery Pig Bike Shop37View
1632325George Toro02:58:56PhoenixAZFun Ride 48View
1642326Taryn Collins02:58:56PhoenixAZFun Ride 14View
1652413Richard Brooks02:59:01PrescottAZFun Ride 56View
1662293Khaleel Salahudeen02:59:05PeoriaAZFun Ride 48View
1672336Ty Frisch02:59:20PeoriaAZFun Ride 37View
1682295Mary Kay Naughton02:59:37PeoriaAZFun RidePosterhanger.com48View
1692230Ron Cleary03:00:22PrescottAZFun Ride 68View
1702329Beth Miller03:00:24Cave CreekAZFun Ride 57View
1712330David Annis03:00:25Cave CreekAZFun Ride 60View
1722354Marty Amorin03:01:26PeoriaAZFun RideValidation Matters, Inc.55View
1732419Trevor Russell03:02:43TucsonAZFun Ride 12View
1742257Kimberly Gutierrez03:05:47PrescottAZFun Ride 56View
1752378Denise Orr03:09:16PhoenixAZFun Ride 45View
1762311Jacob Smith03:15:22ChandlerAZFun Ride 24View
1772250Grace Crothers03:15:26PrescottAZFun Ride 14View
1782385Heather Mackrain03:15:34PhoenixAZFun Ridehbmtb.com49View
1792305Richard Duquette03:16:21OceasideCAFun Ride 60View
1802393Wally Dickinson 03:16:25Camp VerdeAZFun Ride 73View
1812321Elyssa Mudd03:16:34PhoenixAZFun RideMy MTB obsessed boyfriend Colebob30View
1822383Wahyu Lestari03:18:29PrescottAZFun Ride 51View
1832327Denise Hawken-collins03:27:39PhoenixAZFun Ride 42View
1842262Jason Lajeunesse03:47:31Prescott ValleyAZFun Ride 46View
1852318Gary Simmons03:47:31BuckeyeAZFun Ride 44View
1862332Tiffany Carver03:47:33Gilbert AZFun Ride 42View
1872331Jason Carver03:47:35GilbertAZFun Ride 40View
1882395Antonio Guadarrama03:54:10El Cajon CAFun Ride 33View
1892348Tim Arney04:00:10SurpriseAZFun Ride 54View
1902428Russell Pilcher04:15:19PrescottAZFun Ride 69View
1912273James Quinn04:20:00GilbertAZFun Ride 42View
1922361Heather Quinn04:20:00GilbertAZFun Ride 35View
1932376David Selvidge04:35:00GilbertAZFun Ride 42View
1942377Michelle Selvidge04:35:00GilbertAZFun Ride 41View